Location: Caltech
(34.1382°N, 118.1253°W)
Time: 18:33:04
(UTC-07:00)

Gbstr 26 Del rocket - Visible Passes

Search period start: 29 August 2015 00:00
Search period end: 08 September 2015 00:00
Orbit: 494 x 1270 km, 51.8° (Epoch: 29 August)

Date Brightness Start Highest point End Pass type
(mag) Time Alt. Az. Time Alt. Az. Time Alt. Az.
29 Aug 5.6 05:17:16 10° S 05:23:03 35° SE 05:29:52 10° ENE visible
30 Aug 5.2 05:13:13 10° SSW 05:19:16 44° SE 05:26:28 10° ENE visible
31 Aug 4.8 05:09:39 12° SSW 05:15:31 55° SE 05:22:59 10° NE visible
01 Sep 6.3 03:24:06 10° SE 03:25:37 11° ESE 03:27:48 10° E visible
01 Sep 4.4 05:06:45 17° SSW 05:11:48 68° SE 05:19:26 10° NE visible
02 Sep 6.1 03:21:08 15° SE 03:21:46 15° ESE 03:25:45 10° E visible
02 Sep 4.2 05:03:46 23° SW 05:08:08 83° SE 05:15:50 10° NE visible
03 Sep 5.8 03:18:05 20° ESE 03:18:05 20° ESE 03:22:56 10° ENE visible
03 Sep 4.1 05:00:43 28° SW 05:04:30 81° NW 05:12:12 10° NE visible
04 Sep 5.6 03:14:58 26° ESE 03:14:58 26° ESE 03:19:49 10° ENE visible
04 Sep 4.2 04:57:36 31° WSW 05:00:56 67° NW 05:08:33 10° NE visible
05 Sep 5.4 03:11:47 30° E 03:11:47 30° E 03:16:31 10° ENE visible
05 Sep 4.4 04:54:24 32° W 04:57:24 56° NW 05:04:52 10° NE visible
06 Sep 5.3 03:08:32 34° E 03:08:32 34° E 03:13:07 10° ENE visible
06 Sep 4.7 04:51:09 31° W 04:53:54 47° NNW 05:01:10 10° NE visible
07 Sep 5.3 03:05:14 36° ENE 03:05:14 36° ENE 03:09:38 10° NE visible
07 Sep 4.9 04:47:51 29° WNW 04:50:27 40° NNW 04:57:28 10° NE visible
